Dewpoint
5 4 4 2 0 1 1 0 1 0 -1 -1 -1 -1 -1 -1 -2 -2 -2 -3 -4 -4 -4 -4 -3 -3 -3
3 3 3 3 2 2 1 0 -0 -0 -1 -1 -1 -2 -2 -2 -3 -4 -4 -5 -6 -5 -5 -4 -4 -3 -3
2 1 1 1 1 1 -0 -0 -1 -1 -1 -1 -2 -2 -3 -5 -6 -9 -9 -6 -5 -5 -5 -5 -5 -4 -4
1 1 0 0 0 -1 -1 -2 -2 -2 -2 -6 -11 -13 -14 -16 -18 -20 -19 -15 -12 -12 -9 -6 -6 -5 -5
-0 -0 -0 -1 -1 -2 -2 -3 -8 -10 -12 -14 -15 -17 -21 -20 -18 -15 -14 -13 -13 -12 -8 -5 -5 -5 -4
-2 -2 -3 -5 -7 -9 -10 -12 -12 -14 -16 -18 -19 -23 -18 -15 -13 -13 -13 -12 -12 -11 -10 -7 -5 -5 -5
-15 -13 -11 -12 -13 -13 -13 -11 -11 -12 -17 -25 -18 -14 -12 -12 -12 -12 -11 -11 -11 -11 -12 -12 -9 -6 -5
-17 -15 -15 -14 -13 -13 -12 -13 -16 -19 -20 -17 -13 -13 -12 -11 -11 -11 -11 -12 -12 -12 -12 -11 -12 -12 -8
-13 -12 -13 -13 -10 -14 -16 -17 -20 -15 -12 -12 -12 -12 -12 -12 -12 -11 -11 -11 -12 -13 -11 -11 -11 -12 -13
-15 -15 -19 -18 -16 -17 -15 -13 -12 -12 -11 -11 -11 -11 -12 -12 -11 -11 -11 -11 -13 -12 -11 -11 -11 -12 -14
-22 -22 -18 -17 -14 -12 -11 -11 -11 -11 -11 -11 -11 -11 -11 -11 -12 -12 -11 -13 -13 -12 -11 -11 -12 -12 -13
-22 -19 -14 -12 -12 -12 -11 -11 -11 -10 -10 -10 -9 -9 -9 -10 -11 -12 -11 -12 -12 -12 -12 -11 -11 -12 -12
-13 -12 -12 -11 -11 -11 -11 -10 -10 -10 -10 -10 -10 -9 -10 -10 -9 -11 -11 -12 -11 -11 -11 -11 -11 -12 -12
-12 -12 -12 -11 -11 -10 -10 -10 -10 -10 -10 -9 -9 -9 -10 -10 -10 -10 -11 -10 -11 -11 -10 -11 -11 -12 -12
-12 -12 -11 -11 -11 -10 -10 -10 -10 -10 -10 -9 -9 -9 -9 -10 -10 -10 -10 -10 -11 -11 -10 -11 -11 -12 -12
-12 -11 -11 -11 -11 -11 -10 -10 -10 -9 -9 -9 -9 -10 -10 -10 -10 -10 -10 -10 -11 -11 -10 -10 -11 -13 -12
-12 -11 -11 -11 -11 -11 -11 -10 -10 -10 -10 -10 -10 -10 -10 -10 -10 -10 -10 -10 -10 -10 -10 -10 -11 -12 -11
Wind_Speed
26 25 23 21 25 26 28 35 33 29 23 22 24 24 21 20 24 27 25 23 23 21 21 20 20 19 19
19 20 21 22 22 22 23 22 21 22 21 21 22 20 23 25 23 20 19 22 21 20 19 19 18 18 18
11 11 13 14 16 17 18 19 19 19 19 19 20 20 19 20 20 22 20 19 18 18 19 18 19 19 19
8 8 10 10 12 13 15 15 17 17 16 14 15 18 20 23 24 24 23 20 21 19 18 18 18 18 18
7 9 9 9 10 12 13 13 12 13 13 15 19 20 21 20 19 19 19 18 18 17 16 17 18 19 19
6 6 7 10 10 10 12 12 12 12 12 16 16 17 17 17 15 15 15 15 16 17 18 18 18 19 20
6 7 8 9 10 12 12 13 15 16 18 18 11 12 13 13 13 14 14 15 15 14 15 19 20 20 20
8 8 9 10 12 13 14 15 16 14 14 15 7 9 11 11 14 14 12 10 14 16 19 21 23 25 23
8 7 8 9 11 12 11 11 11 7 10 13 10 9 11 11 11 11 10 13 15 17 18 21 24 25 27
12 12 11 9 10 11 9 9 10 8 4 8 11 13 8 9 12 14 15 16 13 17 18 19 22 25 26
9 8 7 6 7 9 10 12 13 14 11 15 19 15 16 18 21 20 17 15 16 15 16 15 17 22 25
6 6 6 8 10 12 12 14 17 18 17 18 22 20 21 24 27 23 21 20 19 18 11 17 17 19 21
7 8 9 11 12 14 14 15 16 16 17 17 20 22 23 27 31 28 27 24 21 15 22 20 21 19 22
10 12 13 14 14 15 16 16 18 15 15 16 18 20 24 27 29 32 28 30 26 26 25 26 24 24 24
14 15 15 15 15 15 16 17 19 19 17 16 16 18 21 24 30 32 32 31 30 26 28 30 29 26 23
15 15 15 16 17 17 17 18 20 20 20 18 18 20 23 25 26 28 27 29 29 28 29 34 36 27 24
16 16 17 18 19 19 19 20 21 23 23 22 21 21 26 31 31 26 25 25 29 33 34 34 35 32 29
Wind_Direction
271 272 274 258 244 247 253 253 257 251 252 264 262 264 265 261 255 258 263 267 271 271 272 271 269 265 263
266 250 242 249 242 249 249 254 257 259 256 256 256 257 255 256 262 271 266 265 268 270 268 267 267 266 264
268 263 257 255 256 257 254 252 255 258 260 263 261 261 259 256 256 261 269 268 265 263 264 267 269 267 265
264 265 262 256 254 253 256 254 255 258 261 260 258 258 262 262 265 265 267 268 268 271 270 268 269 271 272
255 254 256 259 252 250 257 263 263 258 264 271 267 270 272 267 262 263 265 267 269 268 271 271 269 270 270
271 255 249 244 246 250 253 257 269 275 274 267 276 268 265 261 262 261 262 259 260 265 268 270 269 270 271
278 265 254 257 259 258 261 267 273 279 279 280 268 259 250 249 249 252 255 262 264 265 268 270 271 274 275
279 275 269 268 264 264 265 270 275 277 275 281 259 245 235 246 253 255 247 249 272 269 272 275 276 276 274
287 285 280 280 284 282 285 284 284 277 273 279 281 266 267 263 249 224 233 280 278 280 276 278 280 279 279
282 283 283 278 261 269 271 273 280 302 270 274 278 295 292 259 240 217 285 291 285 287 285 284 284 284 283
290 278 270 267 262 266 271 275 276 272 263 270 280 282 285 282 274 274 287 294 300 295 288 284 289 289 289
287 282 276 275 277 278 277 277 281 282 278 268 270 277 282 287 283 292 296 299 304 304 287 299 295 293 289
282 282 282 282 285 289 289 289 288 288 287 279 272 275 274 275 281 289 296 298 301 296 308 300 295 294 292
281 284 286 288 291 291 292 293 292 293 291 292 285 276 274 275 279 283 285 287 293 299 302 300 298 293 293
290 290 289 290 292 293 295 297 300 305 303 304 301 296 289 283 279 282 287 287 288 292 294 298 299 299 296
288 290 292 294 296 297 300 302 303 305 305 307 304 301 296 289 288 293 290 288 291 293 295 300 301 300 300
289 291 294 296 298 298 301 302 300 303 305 305 304 304 303 299 301 299 293 296 295 295 296 295 294 296 297
Height
1473 1470 1471 1474 1474 1475 1476 1482 1481 1485 1486 1487 1490 1491 1491 1491 1491 1491 1492 1493 1494 1494 1494 1495 1496 1495 1495
1468 1469 1468 1469 1469 1470 1474 1478 1479 1479 1479 1480 1482 1484 1484 1484 1484 1485 1485 1486 1486 1486 1487 1488 1488 1488 1490
1467 1466 1466 1465 1465 1466 1469 1471 1473 1473 1473 1474 1477 1478 1478 1478 1478 1479 1479 1480 1480 1480 1480 1479 1481 1482 1482
1464 1463 1464 1462 1462 1465 1467 1469 1470 1470 1471 1471 1472 1472 1472 1472 1473 1472 1472 1473 1473 1472 1472 1474 1475 1474 1473
1463 1463 1463 1461 1463 1466 1467 1467 1468 1468 1466 1466 1467 1468 1466 1467 1466 1466 1466 1467 1467 1467 1467 1469 1470 1469 1468
1463 1461 1461 1464 1464 1464 1465 1464 1465 1462 1462 1463 1463 1462 1461 1460 1461 1461 1462 1463 1463 1462 1462 1463 1462 1462 1462
1461 1461 1462 1462 1462 1462 1461 1460 1460 1460 1459 1456 1457 1456 1455 1457 1457 1458 1458 1459 1458 1457 1456 1455 1454 1454 1453
1459 1459 1459 1459 1458 1458 1457 1457 1456 1455 1454 1452 1453 1453 1453 1452 1452 1453 1453 1454 1453 1451 1450 1448 1447 1445 1445
1457 1457 1456 1455 1454 1453 1453 1452 1452 1452 1452 1451 1450 1449 1449 1448 1447 1448 1449 1448 1447 1446 1444 1442 1440 1438 1436
1454 1453 1452 1451 1451 1450 1450 1450 1449 1449 1448 1449 1447 1446 1444 1443 1443 1444 1444 1443 1441 1440 1437 1435 1433 1430 1428
1450 1449 1449 1449 1448 1448 1448 1447 1447 1446 1447 1445 1443 1443 1442 1439 1438 1438 1438 1436 1434 1433 1431 1428 1427 1424 1420
1447 1447 1447 1446 1446 1445 1445 1444 1443 1442 1442 1441 1438 1438 1437 1434 1431 1430 1430 1428 1427 1425 1424 1422 1420 1418 1415
1445 1445 1444 1444 1443 1442 1441 1439 1438 1437 1436 1435 1434 1432 1431 1429 1425 1423 1422 1420 1420 1418 1417 1415 1413 1411 1408
1443 1442 1441 1440 1439 1437 1436 1435 1434 1434 1432 1430 1428 1426 1423 1421 1420 1415 1416 1414 1413 1411 1408 1406 1404 1403 1400
1440 1439 1438 1436 1435 1434 1432 1430 1428 1427 1426 1425 1423 1420 1417 1414 1411 1409 1408 1406 1405 1404 1401 1396 1395 1393 1391
1436 1435 1433 1432 1430 1429 1428 1425 1423 1421 1419 1418 1416 1413 1410 1407 1405 1402 1400 1398 1397 1395 1392 1388 1383 1383 1382
1432 1431 1429 1428 1426 1424 1423 1421 1418 1416 1414 1413 1411 1408 1403 1398 1397 1397 1392 1390 1388 1385 1383 1381 1375 1373 1372